Location: Oshawa
(43.9000°N, 78.8670°W)
Time: 23:18:25
(UTC-04:00)

Cosmos 1707 Rocket - Visible Passes

Search period start: 23 April 2014 00:00
Search period end: 03 May 2014 00:00
Orbit: 607 x 634 km, 82.5° (Epoch: 23 April)

Date Brightness Start Highest point End Pass type
(mag) Time Alt. Az. Time Alt. Az. Time Alt. Az.
23 Apr 5.4 03:43:15 10° NNE 03:47:05 29° ENE 03:50:53 10° SE visible
23 Apr 4.7 05:21:18 10° NW 05:24:51 25° W 05:28:22 10° SW visible
24 Apr 4.2 04:00:44 10° N 04:05:02 54° ENE 04:08:21 16° SSE visible
24 Apr 5.4 05:40:14 10° NW 05:42:24 14° W 05:44:34 10° WSW visible
25 Apr 6.6 02:43:48 10° ENE 02:44:21 10° ENE 02:44:54 10° ENE visible
25 Apr 3.4 04:18:29 10° N 04:22:52 79° W 04:25:22 25° S visible
26 Apr 6.0 02:59:27 10° NNE 03:02:30 18° ENE 03:05:21 11° ESE visible
26 Apr 4.0 04:36:30 10° NNW 04:40:36 41° W 04:42:29 26° SW visible
27 Apr 5.1 03:16:36 10° N 03:20:32 32° ENE 03:22:32 22° ESE visible
27 Apr 4.8 04:54:51 10° NW 04:58:14 22° W 04:59:41 19° WSW visible
28 Apr 3.9 03:34:08 10° N 03:38:27 60° E 03:39:47 40° SE visible
28 Apr 5.4 05:14:00 10° WNW 05:15:46 12° W 05:16:56 11° W visible
29 Apr 6.4 02:16:28 10° NE 02:17:49 11° ENE 02:19:09 10° E visible
29 Apr 3.4 03:51:55 10° NNW 03:56:16 72° W 03:57:05 55° SSW visible
30 Apr 5.7 02:32:43 10° NNE 02:35:56 20° ENE 02:37:16 17° E visible
30 Apr 4.1 04:09:58 10° NNW 04:13:58 37° W 04:14:26 36° WSW visible
01 May 4.8 02:49:56 10° N 02:53:57 35° ENE 02:54:39 33° E visible
01 May 4.9 04:28:23 10° NW 04:31:35 21° W 04:31:48 20° W visible
02 May 3.7 03:07:30 10° N 03:11:51 66° E 03:12:04 65° E visible
02 May 5.6 04:47:52 10° WNW 04:49:06 11° W 04:49:13 11° W visible
